CAPE
0 0 0 0 0 0 0 0 0 0 0 0 0 0 0 0 0 0 0 0 1 0 0 0 0 0 0 0 0 0 0 0 0 0 0 0 0 0 0 0 0 0 1 217
0 0 0 0 0 0 0 0 0 0 0 0 0 0 0 0 0 0 0 0 0 0 0 0 0 0 0 0 0 0 0 0 0 1 0 0 0 0 0 0 0 20 32 231
0 0 0 0 0 0 0 0 0 0 0 0 0 1 0 0 0 0 0 0 0 0 0 4 0 0 0 0 0 0 0 0 0 29 11 0 0 0 0 0 0 0 5 118
0 0 0 0 0 0 0 0 0 0 0 0 0 0 0 0 0 0 0 0 0 0 12 0 0 3 0 0 0 0 0 0 0 0 0 0 0 0 0 0 0 0 16 84
0 0 0 0 0 0 0 0 0 0 0 0 0 0 0 0 0 0 0 0 0 0 0 7 20 0 0 0 0 0 0 0 0 0 1 0 0 0 0 0 0 0 0 7
0 0 0 0 0 0 0 0 0 0 0 0 0 0 0 0 4 0 1 0 0 0 0 0 0 0 0 1 0 0 0 0 14 0 0 2 0 0 0 0 0 0 0 330
3 2 0 0 0 0 0 0 0 0 0 1 0 0 0 1 6 1 0 0 0 0 0 0 0 0 0 0 0 0 0 0 3 7 13 13 9 18 58 35 2 6 33 66
4 5 3 0 0 0 0 0 0 0 0 0 0 2 1 1 4 8 0 0 0 0 0 0 0 0 0 0 0 0 0 0 0 0 1 0 9 106 95 51 26 341 119 261
3 2 2 1 0 0 0 0 0 0 0 0 0 0 0 3 11 11 0 0 0 0 0 0 0 0 0 0 0 0 0 0 0 0 0 1 414 199 137 141 66 662 776 714
3 3 4 5 4 0 0 0 0 0 17 0 0 0 3 14 18 33 0 0 0 0 0 0 0 10 0 4 0 0 0 0 0 0 0 1 343 122 139 28 185 241 237 284
5 5 4 5 8 1 1 5 0 3 76 8 0 0 0 19 37 30 0 0 3 0 6 68 4 1 10 0 6 19 14 23 3 0 3 37 218 99 165 298 383 202 110 74
6 5 5 9 11 5 0 5 5 5 41 59 1 0 0 0 7 8 1 36 1 12 31 78 15 0 11 3 48 21 0 1 94 207 354 388 284 375 236 222 242 230 156 79
8 6 8 13 15 9 0 11 4 31 86 91 15 0 0 8 35 19 17 15 34 0 1 0 0 0 0 6 1 86 16 28 83 0 7 58 68 223 175 195 308 207 79 2
9 9 11 16 5 9 1 25 10 52 118 65 3 2 18 10 50 31 42 46 0 0 0 0 0 0 0 0 35 83 165 242 119 111 97 54 164 118 138 139 287 313 175 38
9 12 13 8 10 6 1 25 62 60 58 45 21 8 7 42 46 18 4 0 0 0 0 0 0 0 0 0 0 15 64 131 123 72 35 114 310 297 176 96 308 441 374 128
9 9 9 9 5 0 34 63 113 15 6 25 19 11 18 10 5 0 5 0 0 6 11 10 5 1 0 0 43 93 12 17 0 39 1 13 31 31 3 119 333 466 666 453
6 4 3 1 0 42 97 74 33 0 11 92 39 37 6 0 0 0 0 0 0 0 2 0 1 0 0 0 251 142 13 0 0 0 0 0 5 37 50 196 336 410 658 160
1 0 0 0 0 0 68 7 0 0 95 68 49 42 22 1 22 38 4 2 0 0 5 7 2 15 0 1 52 78 2 0 0 0 0 0 13 25 96 144 303 478 457 142
0 0 0 0 4 120 35 0 0 86 159 168 68 93 76 2 104 90 29 64 38 55 9 17 7 20 11 5 96 44 0 0 1 1 0 0 0 4 10 18 298 344 460 311
0 1 79 81 104 0 1 94 91 89 87 124 154 67 125 27 71 71 43 49 45 46 31 43 23 15 19 12 23 15 5 1 1 0 1 8 10 12 18 15 167 244 443 432
29 112 59 12 0 78 138 94 103 55 38 37 56 96 56 68 59 67 56 39 34 48 43 46 19 66 28 75 4 9 9 2 0 0 3 11 24 9 16 35 27 98 226 412
54 12 25 33 110 98 92 108 123 116 96 39 58 103 93 51 103 121 57 47 104 66 70 27 23 128 313 21 7 11 10 4 1 5 20 25 7 31 49 27 68 115 159 319
133 81 18 59 50 244 49 70 93 131 52 101 104 140 126 59 127 44 88 75 127 146 53 46 115 560 75 6 9 13 9 0 4 7 20 26 28 40 53 65 64 74 93 72
152 59 11 40 19 12 85 111 202 247 362 357 377 286 73 57 60 200 95 142 215 95 78 102 462 240 13 11 16 17 11 8 8 14 25 23 39 42 40 40 47 47 38 3
108 39 5 38 37 52 49 71 125 84 147 201 209 315 295 269 206 246 162 179 75 149 112 149 554 138 13 19 15 19 19 17 21 20 35 23 41 27 42 39 42 0 0 0
38 26 20 18 7 16 21 23 37 10 16 78 50 9 0 89 164 113 88 84 471 104 91 496 244 51 27 46 20 30 23 27 21 32 33 9 8 4 23 18 9 8 0 0
50 39 24 36 48 53 30 37 13 20 15 40 7 12 7 9 11 10 8 21 13 26 206 120 142 79 46 60 48 19 35 46 40 21 25 19 12 13 15 10 4 1 1 0
CIN
-0 -0 -0 -0 -0 -0 -0 -0 -0 -0 -0 -0 -0 -0 -0 -0 -0 -0 -0 -0 -0 -0 -0 -0 -0 -0 -0 -0 -0 -0 -0 -0 -0 -0 -0 -0 -0 -0 -0 -0 -0 -0 -0 -2
-0 -0 -0 -0 -0 -0 -0 -0 -0 -0 -0 -0 -0 -0 -0 -0 -0 -0 -0 -0 -0 -0 -0 -0 -0 -0 -0 -0 -0 -0 -0 -0 -0 -0 -0 -0 -0 -0 -0 -0 -0 -0 -0 -0
-0 -0 -0 -0 -0 -0 -0 -0 -0 -0 -0 -0 -0 -0 -0 -0 -0 -0 -0 -0 -0 -0 -0 -17 -0 -0 -0 -0 -0 -0 -0 -0 -0 -0 -0 -0 -0 -0 -0 -0 -0 -0 -0 -0
-0 -0 -0 -0 -0 -0 -0 -0 -0 -0 -0 -0 -0 -0 -0 -0 -0 -0 -0 -0 -0 -0 -0 -0 -0 -8 -0 -0 -0 -0 -0 -0 -0 -0 -0 -0 -0 -0 -0 -0 -0 -0 -0 -1
-0 -0 -0 -0 -0 -0 -0 -0 -0 -0 -0 -0 -0 -0 -0 -0 -0 -0 -0 -0 -0 -0 -0 -0 -0 -0 -0 -0 -0 -0 -0 -0 -0 -0 -0 -0 -0 -0 -0 -0 -0 -0 -0 -8
-0 -0 -0 -0 -0 -0 -0 -0 -0 -0 -0 -0 -0 -0 -0 -0 -0 -0 -0 -0 -0 -0 -0 -0 -0 -0 -0 -0 -0 -0 -0 -0 -0 -0 -0 -0 -0 -0 -0 -0 -0 -0 -0 -2
-0 -0 -0 -0 -0 -0 -0 -0 -0 -0 -0 -0 -0 -0 -0 -0 -0 -0 -0 -0 -0 -0 -0 -0 -0 -0 -0 -0 -0 -0 -0 -0 -0 -0 -0 -0 -0 -0 -0 -0 -0 -0 -0 -4
-0 -0 -0 -0 -0 -0 -0 -0 -0 -0 -0 -0 -0 -1 -1 -1 -1 -0 -0 -0 -0 -0 -0 -0 -0 -0 -0 -0 -0 -0 -0 -0 -0 -0 -0 -0 -1 -2 -1 -0 -0 -1 -0 -2
-0 -0 -0 -0 -0 -0 -0 -0 -0 -0 -0 -0 -0 -0 -1 -3 -0 -0 -0 -0 -0 -0 -0 -0 -0 -0 -0 -0 -0 -0 -0 -0 -0 -0 -0 -0 -1 -35 -16 -18 -0 -62 -42 -7
-0 -0 -0 -0 -0 -0 -0 -0 -0 -0 -0 -0 -0 -0 -1 -1 -2 -0 -0 -0 -0 -0 -0 -0 -0 -0 -0 -0 -0 -0 -0 -0 -0 -0 -0 -0 -20 -44 -43 -1 -25 -81 -85 -77
-0 -0 -0 -0 -0 -0 -0 -0 -0 -0 -0 -53 -0 -0 -0 -0 -0 -0 -0 -0 -35 -0 -0 -0 -1 -0 -0 -0 -0 -3 -9 -5 -1 -0 -0 -0 -85 -41 -6 -62 -42 -82 -152 -183
-0 -0 -0 -0 -0 -0 -0 -0 -0 -0 -1 -2 -17 -0 -0 -0 -13 -1 -2 -1 -0 -0 -0 -4 -2 -0 -0 -0 -0 -50 -4 -2 -3 -9 -1 -55 -82 -54 -91 -95 -75 -70 -130 -174
-0 -0 -0 -0 -0 -0 -0 -0 -0 -0 -0 -0 -0 -0 -0 -55 -14 -10 -3 -3 -1 -0 -0 -0 -0 -0 -0 -0 -6 -13 -77 -129 -69 -15 -65 -35 -32 -36 -84 -63 -29 -80 -150 -0
-0 -0 -0 -0 -0 -0 -2 -0 -0 -2 -3 -0 -0 -1 -30 -92 -40 -26 -6 -1 -0 -0 -0 -0 -0 -0 -0 -0 -43 -46 -2 -42 -60 -51 -48 -23 -5 -2 -7 -29 -9 -26 -85 -173
-0 -0 -0 -0 -0 -0 -0 -1 -1 -13 -0 -0 -0 -0 -13 -16 -29 -22 -18 -0 -0 -0 -0 -0 -0 -0 -0 -0 -26 -91 -44 -37 -14 -1 -36 -11 -2 -5 -7 -11 -1 -0 -23 -83
-0 -0 -0 -0 -0 -0 -0 -0 -4 -11 -2 -20 -0 -0 -11 -34 -39 -1 -13 -0 -0 -0 -0 -0 -0 -1 -0 -0 -57 -36 -110 -102 -4 -11 -18 -54 -11 -38 -3 -0 -0 -0 -0 -1
-0 -0 -0 -0 -0 -12 -0 -0 -1 -0 -3 -12 -0 -1 -23 -0 -0 -0 -0 -0 -0 -0 -0 -0 -0 -0 -0 -0 -7 -6 -69 -0 -0 -0 -0 -0 -26 -65 -32 -0 -0 -1 -0 -26
-0 -0 -0 -0 -0 -0 -0 -13 -0 -0 -21 -0 -1 -0 -6 -2 -0 -0 -0 -0 -0 -0 -0 -0 -0 -0 -0 -36 -57 -30 -40 -0 -0 -0 -0 -0 -37 -58 -11 -26 -0 -1 -0 -12
-0 -0 -0 -0 -5 -0 -6 -0 -0 -56 -5 -1 -0 -0 -0 -3 -0 -0 -0 -0 -0 -0 -0 -0 -0 -0 -0 -82 -20 -62 -0 -0 -0 -0 -0 -0 -0 -0 -0 -22 -0 -0 -0 -0
-0 -13 -0 -0 -0 -0 -1 -46 -0 -0 -0 -0 -0 -0 -0 -4 -0 -0 -0 -0 -0 -0 -0 -0 -0 -0 -0 -56 -79 -100 -0 -0 -0 -0 -0 -0 -0 -0 -0 -0 -0 -0 -0 -0
-0 -0 -0 -7 -0 -9 -0 -0 -0 -2 -17 -15 -1 -0 -0 -0 -0 -0 -0 -0 -0 -0 -0 -0 -0 -11 -25 -23 -0 -0 -0 -0 -0 -0 -0 -0 -0 -3 -0 -1 -2 -8 -1 -0
-0 -1 -6 -0 -0 -0 -0 -0 -0 -0 -0 -0 -0 -0 -0 -0 -0 -0 -0 -0 -0 -0 -2 -0 -13 -0 -0 -32 -0 -0 -0 -0 -0 -0 -0 -0 -11 -0 -0 -1 -2 -26 -3 -0
-0 -1 -0 -0 -0 -0 -0 -0 -0 -0 -0 -0 -0 -0 -0 -0 -0 -0 -0 -0 -0 -4 -0 -0 -1 -0 -26 -0 -0 -0 -0 -0 -0 -0 -0 -0 -0 -0 -0 -0 -0 -3 -4 -1
-0 -0 -20 -0 -0 -0 -0 -0 -0 -0 -0 -0 -0 -3 -0 -0 -0 -0 -0 -0 -0 -0 -0 -4 -0 -14 -25 -0 -0 -0 -0 -0 -0 -0 -0 -0 -0 -0 -0 -0 -0 -0 -0 -4
-0 -1 -0 -0 -0 -0 -1 -0 -0 -0 -2 -0 -0 -0 -0 -0 -0 -0 -0 -0 -0 -0 -10 -0 -1 -34 -0 -0 -0 -0 -0 -0 -0 -0 -0 -0 -0 -0 -0 -0 -0 -0 -11 -0
-6 -2 -0 -0 -0 -0 -0 -0 -0 -0 -0 -0 -0 -1 -12 -0 -0 -0 -0 -0 -0 -1 -2 -0 -24 -38 -0 -0 -0 -0 -0 -0 -0 -0 -0 -4 -1 -0 -0 -4 -0 -5 -0 -0
-0 -0 -1 -0 -0 -0 -0 -4 -3 -5 -0 -1 -0 -3 -0 -0 -0 -0 -0 -0 -1 -4 -0 -5 -6 -12 -16 -0 -0 -0 -0 -0 -0 -0 -0 -0 -0 -0 -6 -0 -3 -5 -9 -0
Wind_Speed
12 12 12 12 13 22 11 8 7 8 5 9 10 12 3 4 11 9 6 7 11 10 8 11 10 7 4 1 6 11 11 9 9 15 7 7 8 11 19 9 14 10 15 4
11 11 11 10 9 12 9 6 9 7 7 10 10 8 5 9 7 10 10 7 5 4 8 4 4 8 3 2 6 8 3 9 8 10 12 7 12 11 9 12 13 12 12 5
10 10 10 9 7 8 7 6 6 7 8 12 13 9 12 11 6 4 4 4 7 10 8 3 5 7 5 1 1 6 4 15 15 5 7 6 17 7 9 11 10 11 13 12
9 9 9 8 5 7 6 6 6 7 5 11 12 16 11 15 11 8 9 8 11 11 8 9 10 9 6 8 6 6 8 14 13 16 5 8 4 8 9 11 13 14 6 12
9 9 8 8 5 5 6 6 6 4 11 10 12 10 15 16 16 13 13 10 7 5 8 7 4 9 11 8 8 11 11 12 10 12 10 11 12 10 11 11 11 10 13 14
10 8 8 7 5 4 5 4 6 6 10 14 14 14 16 16 12 5 6 10 8 9 6 4 6 5 7 6 7 8 10 10 8 15 18 15 17 14 14 14 14 14 14 7
11 10 8 8 8 10 6 5 5 7 13 13 14 17 16 13 11 11 8 7 10 9 8 3 6 6 4 5 5 9 7 7 11 12 13 21 6 12 6 10 14 11 9 8
12 11 10 9 9 12 5 4 3 4 11 14 12 17 12 12 7 7 8 6 9 8 8 7 7 7 6 9 4 7 9 8 9 13 13 14 10 7 9 11 13 17 9 4
12 12 11 11 10 13 4 4 1 3 7 11 13 9 11 8 11 10 9 5 7 9 7 8 8 8 10 10 9 7 9 6 9 8 13 17 16 11 7 1 10 14 12 7
14 14 13 12 11 14 3 1 2 1 4 14 9 6 10 12 13 10 12 9 6 9 6 6 8 7 2 6 10 8 10 8 12 11 12 8 10 4 1 12 3 7 10 8
16 15 15 14 12 18 7 2 4 4 2 7 10 12 12 16 13 9 12 10 9 9 7 4 6 6 7 8 1 5 9 8 9 10 13 13 9 6 7 7 3 5 6 9
17 16 15 14 12 23 10 3 4 3 2 3 9 15 12 13 10 8 13 4 13 6 5 3 7 4 3 8 6 6 6 6 8 9 7 6 5 7 5 5 5 4 6 9
16 16 15 14 10 25 10 5 7 3 1 7 11 11 3 8 7 4 8 5 5 4 3 6 2 5 3 7 7 9 3 3 6 6 3 5 5 7 1 4 5 4 5 8
15 15 13 12 19 22 5 1 4 2 0 2 7 6 3 7 2 0 6 7 5 8 6 5 4 6 1 4 5 5 4 9 5 10 12 8 9 7 1 5 1 3 5 4
13 11 13 17 21 17 3 1 2 3 2 4 8 8 5 7 7 6 5 6 7 7 5 4 5 3 2 3 4 7 8 7 8 5 6 7 2 7 4 5 5 2 4 5
9 17 19 20 19 14 3 4 4 8 9 5 5 7 6 6 6 6 7 7 7 6 5 4 4 5 4 4 5 3 5 6 7 6 4 4 7 3 4 6 4 2 2 4
20 20 18 15 11 1 2 1 2 3 5 5 8 8 7 8 9 6 6 6 5 5 5 2 6 6 5 7 7 5 6 6 5 0 1 6 6 7 7 4 5 3 8 8
17 15 13 10 5 5 4 3 4 2 7 4 2 4 8 8 7 6 5 6 5 5 5 3 6 8 5 4 8 8 6 6 7 6 5 7 3 7 8 6 6 9 8 9
11 10 9 3 3 3 4 2 5 6 5 6 2 7 6 9 7 5 5 5 6 4 6 8 6 7 7 5 8 9 8 9 8 7 6 6 8 9 9 9 10 6 11 11
8 7 5 3 4 1 4 5 7 5 3 4 4 3 6 10 6 6 4 5 4 5 6 4 6 10 10 11 6 8 9 9 4 7 9 8 9 9 10 9 10 6 6 11
4 2 2 4 2 5 4 3 4 5 3 5 6 5 4 7 7 6 4 3 2 3 5 5 3 4 8 8 9 7 7 5 3 3 2 2 2 5 5 4 7 4 3 6
2 3 2 3 3 3 3 3 3 4 3 3 8 5 2 4 5 5 4 4 4 4 7 3 3 7 10 12 12 9 8 5 4 3 4 3 3 4 4 3 5 7 4 6
5 3 1 2 2 2 4 3 2 2 3 3 4 6 7 3 5 3 4 7 6 7 5 5 5 12 11 12 11 10 9 5 6 4 3 2 3 3 5 3 4 2 6 6
3 3 0 3 2 1 2 5 5 4 5 6 3 3 4 3 5 4 6 5 3 6 5 6 9 13 13 12 11 12 11 8 6 5 5 3 3 4 2 0 3 5 7 6
2 4 4 4 3 5 6 6 3 4 4 5 1 1 2 4 4 4 4 6 6 5 5 5 13 16 14 13 12 13 12 9 8 7 8 6 5 4 5 4 5 7 7 8
1 2 4 1 1 1 1 2 4 5 6 2 2 2 3 3 4 5 7 3 4 3 3 8 14 16 14 13 15 13 11 12 11 10 11 8 7 7 7 8 6 8 7 5
2 1 1 3 1 3 3 1 2 1 2 3 2 3 1 2 3 2 4 6 5 10 4 8 13 14 13 12 14 14 13 10 12 11 11 11 9 9 9 10 7 5 3 3
Wind_Direction
312 317 323 328 335 327 302 285 251 124 179 236 230 244 220 350 166 198 199 303 222 206 180 225 199 169 54 277 292 223 233 285 182 202 115 330 316 226 225 239 231 251 265 42
311 315 319 328 344 356 317 280 298 141 221 248 232 210 219 218 183 197 191 175 254 304 204 156 255 89 79 246 233 356 301 249 230 154 173 207 250 232 272 264 269 252 239 169
309 315 318 325 334 340 296 279 266 185 210 266 287 256 224 198 284 145 273 136 176 181 180 212 187 152 161 137 359 347 299 267 282 282 17 338 193 210 233 261 221 240 246 233
302 306 308 312 308 318 285 243 267 15 253 225 240 263 229 202 176 217 203 199 208 208 195 192 193 164 147 196 142 235 254 264 274 274 125 285 316 199 202 241 265 277 246 309
291 291 294 297 274 298 260 294 312 334 270 289 276 234 247 222 186 188 195 245 197 172 240 217 239 203 193 202 185 235 237 254 280 265 259 240 256 226 245 258 273 276 278 287
275 275 281 282 239 244 294 293 274 267 282 242 240 241 222 228 180 214 270 217 174 212 109 52 8 3 340 22 257 233 251 256 218 253 246 236 242 247 254 256 246 249 249 22
279 273 266 260 210 216 319 314 306 272 256 247 247 237 222 217 181 192 188 193 218 83 103 170 216 195 193 218 232 277 239 248 271 265 264 244 221 267 299 289 238 252 260 323
280 276 269 258 240 202 235 285 278 267 262 276 247 247 230 216 129 148 182 76 71 148 173 196 170 180 188 204 203 235 237 268 244 248 246 263 244 169 234 248 250 347 251 8
269 266 259 250 242 199 212 244 6 313 296 247 309 252 239 186 183 149 99 144 151 185 192 217 210 189 197 171 173 226 233 233 278 238 254 259 61 59 17 340 233 22 1 345
267 266 264 260 247 182 163 102 88 119 249 270 332 249 236 212 163 168 150 152 169 218 235 227 218 205 237 188 204 168 206 231 229 232 253 257 71 72 206 234 62 38 9 344
263 264 265 261 254 183 155 145 170 167 259 315 312 305 287 228 201 157 158 181 193 194 175 191 263 286 169 246 322 171 214 203 225 231 260 236 3 250 272 50 76 30 12 341
261 261 262 253 248 175 163 145 160 198 210 259 280 293 306 309 334 180 155 279 174 196 136 156 264 215 145 225 184 175 254 279 339 336 37 74 53 38 47 12 351 19 344 332
262 260 259 249 249 171 165 147 141 165 158 237 223 226 310 314 347 63 181 212 116 100 25 175 242 231 264 199 238 173 217 275 264 304 245 263 211 134 291 356 10 16 357 333
259 260 250 241 173 158 134 194 167 99 207 196 176 171 215 278 122 48 359 92 135 125 219 159 213 231 180 281 26 253 68 146 238 262 266 273 235 245 274 328 316 340 3 351
250 248 258 155 142 145 123 285 151 261 286 194 149 133 174 178 151 148 175 172 175 192 190 202 210 228 153 242 295 239 189 223 233 266 34 307 62 50 133 255 306 348 1 358
241 133 122 121 129 141 188 104 271 240 232 273 137 77 159 141 144 161 170 176 204 215 231 219 88 57 263 206 245 200 285 173 258 269 46 333 299 175 249 261 258 357 73 33
101 103 106 114 142 137 288 79 66 186 231 242 150 145 164 146 147 157 170 184 204 232 210 230 205 173 222 254 230 227 212 193 203 202 188 234 231 252 236 227 203 173 107 83
98 102 107 110 155 271 217 157 178 241 251 257 190 97 154 195 174 160 170 164 173 195 222 147 220 135 230 244 237 246 198 193 185 202 218 274 199 205 212 225 255 166 128 144
111 112 128 120 236 223 75 96 259 230 291 304 181 153 152 178 218 104 198 206 191 110 228 216 202 206 210 227 215 194 199 200 209 210 242 256 256 263 246 226 238 219 167 159
144 200 201 141 81 53 215 180 183 204 229 249 255 175 143 185 166 181 166 211 168 209 194 122 235 245 233 210 208 173 184 203 229 256 254 243 254 236 230 201 232 217 196 187
234 269 63 79 103 236 216 180 165 175 204 222 239 221 149 195 184 155 174 270 209 230 174 222 264 257 212 146 138 138 142 185 201 319 329 253 313 301 235 196 259 182 195 173
319 290 131 162 242 226 247 191 170 213 209 160 220 183 101 162 120 174 218 192 245 221 148 199 233 224 117 135 145 161 157 146 135 120 157 162 236 199 163 160 200 200 112 166
249 243 183 201 184 289 184 175 259 205 144 204 196 198 138 200 199 150 209 228 216 130 183 216 239 122 142 146 151 148 111 138 121 127 149 181 196 190 235 180 168 153 132 160
244 218 60 260 200 298 345 353 31 33 11 19 345 281 179 242 226 159 223 198 142 203 197 230 150 145 145 145 145 141 134 130 129 108 99 74 124 141 177 126 149 141 114 135
330 61 22 11 19 18 18 353 52 24 346 336 327 319 298 224 231 216 230 200 221 179 200 245 118 140 143 141 139 126 143 140 140 129 110 108 96 100 116 105 108 102 113 113
72 133 158 194 109 315 31 360 52 358 336 351 35 53 14 266 291 224 213 228 167 214 219 111 135 139 144 143 139 137 123 121 116 118 110 113 99 104 102 98 84 116 116 123
154 123 205 210 351 53 114 216 131 96 337 32 351 200 198 314 269 275 12 1 357 327 82 138 134 141 143 149 121 135 147 136 124 125 119 120 120 106 115 120 136 131 143 118